Watsonville, CA

4:22 PM PST on December 12, 2019 (GMT -0800)
Watsonville Municipal

Weather History for KWVI - August, 2019

Change the Weather History Date:

Wednesday, August 14, 2019

  Actual Average Record
Temperature  
Mean Temperature 72 °F 64 °F  
Max Temperature 89 °F 74 °F 89 °F (2019)
Min Temperature 54 °F 53 °F 47 °F (2007)
Degree Days  
Heating Degree Days 0    
Month to date heating degree days 6  
Since 1 June heating degree days 144  
Since 1 July heating degree days 53  
Cooling Degree Days 7    
Month to date cooling degree days 26  
Year to date cooling degree days 80  
Since 1 June cooling degree days 80  
Growing Degree Days 21 (Base 50)    
Moisture  
Dew Point 55 °F    
Average Humidity 62    
Maximum Humidity 93    
Minimum Humidity 31    
Precipitation  
Precipitation 0.00 in - 0.03 in (1976)
Month to date precipitation T  
Year to date precipitation 22.76  
Sea Level Pressure  
Sea Level Pressure 29.96 in    
Wind  
Wind Speed 3 mph (SSW)    
Max Wind Speed 12 mph    
Max Gust Speed 15 mph    
Visibility 10 miles    
Events      
T = Trace of Precipitation, MM = Missing Value Source: NWS Daily Summary

Daily Weather History Graph

Daily Weather History Graph

Search for Another Location

Airport or City:

Astronomy

Aug. 14, 2019 Rise Set
Actual Time 6:23 AM PDT 7:59 PM PDT
Civil Twilight 5:55 AM PDT 8:27 PM PDT
Nautical Twilight 5:22 AM PDT 9:00 PM PDT
Astronomical Twilight 4:46 AM PDT 9:35 PM PDT
Moon 7:55 PM PDT (8/14) 5:28 AM PDT (8/14)
Length of Visible Light 14h 32m
Length of Day
13h 36m
Full, 100% of the Moon is Illuminated
Aug 14
Full
Aug 15
Full
Aug 23
Last Quarter
Aug 30
New
Sep 5
First Quarter

Hourly Weather History & Observations

Time (PDT) Temp. Heat Index Dew Point Humidity Pressure Visibility Wind Dir Wind Speed Gust Speed Precip Events Conditions
12:53 AM 57.9 °F - 55.0 °F 90% 29.97 in 10.0 mi Calm Calm - N/A   Clear
1:53 AM 59.0 °F - 54.0 °F 83% 29.96 in 10.0 mi Calm Calm - N/A   Clear
2:53 AM 57.9 °F - 53.1 °F 84% 29.95 in 10.0 mi Calm Calm - N/A   Clear
3:53 AM 57.0 °F - 52.0 °F 83% 29.95 in 10.0 mi Calm Calm - N/A   Clear
4:53 AM 55.9 °F - 51.1 °F 84% 29.95 in 10.0 mi Calm Calm - N/A   Clear
5:53 AM 55.0 °F - 51.1 °F 86% 29.96 in 10.0 mi Calm Calm - N/A   Clear
6:53 AM 55.9 °F - 51.1 °F 84% 29.97 in 10.0 mi Calm Calm - N/A   Clear
7:53 AM 62.1 °F - 53.1 °F 72% 29.99 in 10.0 mi Calm Calm - N/A   Clear
8:53 AM 68.0 °F - 54.0 °F 61% 29.99 in 10.0 mi Calm Calm - N/A   Clear
9:53 AM 78.1 °F - 55.0 °F 45% 29.98 in 10.0 mi Calm Calm - N/A   Clear
10:53 AM 81.0 °F 81.3 °F 59.0 °F 47% 29.98 in 10.0 mi Variable 4.6 mph - N/A   Clear
11:53 AM 84.9 °F 83.7 °F 55.9 °F 37% 29.98 in 10.0 mi South 6.9 mph - N/A   Clear
12:53 PM 87.1 °F 85.1 °F 54.0 °F 32% 29.96 in 10.0 mi SW 6.9 mph - N/A   Clear
1:53 PM 86.0 °F 84.5 °F 55.0 °F 35% 29.96 in 10.0 mi SSW 10.4 mph - N/A   Clear
2:53 PM 82.9 °F 82.0 °F 55.0 °F 38% 29.96 in 10.0 mi SW 9.2 mph - N/A   Clear
3:53 PM 81.0 °F 80.8 °F 55.9 °F 42% 29.95 in 10.0 mi SSW 9.2 mph - N/A   Clear
4:53 PM 79.0 °F - 55.9 °F 45% 29.94 in 10.0 mi SSW 6.9 mph - N/A   Clear
5:53 PM 73.9 °F - 55.9 °F 53% 29.94 in 10.0 mi SSW 9.2 mph - N/A   Clear
6:53 PM 70.0 °F - 57.9 °F 65% 29.95 in 10.0 mi South 6.9 mph - N/A   Clear
7:53 PM 63.0 °F - 57.0 °F 81% 29.96 in 10.0 mi SSW 4.6 mph - N/A   Clear
8:53 PM 61.0 °F - 57.0 °F 87% 29.97 in 9.0 mi SSW 4.6 mph - N/A   Clear
9:53 PM 61.0 °F - 57.9 °F 90% 29.98 in 8.0 mi Calm Calm - N/A   Clear
10:53 PM 62.1 °F - 57.0 °F 84% 29.97 in 10.0 mi Calm Calm - N/A   Clear
11:53 PM 62.1 °F - 57.0 °F 84% 29.97 in 10.0 mi Calm Calm - N/A   Clear